Weather in Soloboevo

Russia / Tyumen Oblast     56°26′25″N   65°22′47″E
temp.,
°C
wind,
m/s
gust,
m/s
humid.,
%
clouds,
%
prec.,
mm/h
press.,
hPa
HPBL,
m
9 march, tue
tue923:00−8ssw5139198 0.2 1006597
02:00−8sw6148760 0.0 1005444
05:00−8sw5148773 0.0 1005384
08:00−8ssw5129237 0.0 1005337
11:00−3sw6109568 0.4 1005763
14:00−2sw81295100 1.4 10051009
17:00−4nw6109184 2.1 1006468
20:00−8w239390 0.3 100921
10 march, wed
wed1023:00−13n119271 0.3 101121
02:00−13e1293100 0.0 101120
05:00−14ene2395100 0.0 101021
08:00−13ene3495100 0.0 100986
11:00−9ene4695100 0.0 1007291
14:00−7ene5793100 0.1 1005485
17:00−6ene6994100 0.3 1003547
20:00−7ene61195100 1.1 1002488
11 march, thu
thu1123:00−8ene71195100 2.4 1001479
02:00−9ne71295100 1.1 1000451
05:00−12ne61195100 2.4 1000446
08:00−13nne71194100 0.8 1001458
11:00−14n7994100 1.2 1002530
14:00−14n6892100 0.4 1003543
17:00−15nnw5891100 0.6 1005683
20:00−17nnw4995100 0.2 1008558
12 march, fri
fri1223:00−20nw4994100 0.3 1010479
02:00−21wnw4796100 0.1 1012329
05:00−23wnw4897100 0.1 1014312
08:00−23wnw4894100 0.1 1017367
11:00−22wnw469093 0.1 1018373
14:00−18w46870 0.0 1018467
17:00−17wsw48880 0.0 1018423
20:00−20sw45975 0.0 101884
13 march, sat
sat1323:00−16sw4109628 0.1 1019214
02:00−14wsw5119155 0.0 1019230
05:00−15wsw5119128 0.0 1020244
08:00−14wsw612920 0.0 1021279
11:00−10w699035 0.0 1023499
14:00−7w6889100 0.0 1024535
17:00−6wsw5989100 0.0 1025453
20:00−10wsw459464 0.0 102585